Header for Extended Forecast Station List Page

Search by: ID | Name | Date | Parm | Value | Avg | % Avg
Sort by: ID | Name | Date | Parm | Value | Avg | % Avg

Enter search or view all records.

Click on id for station plot
#IDNameDateParmValueAvg% Avg
0LYDM8KOOTENAI-LIBBY DAM05-10-2021INFLOW (KAF)4376562678
1LEOI1KOOTENAI-AT LEONIA05-10-2021DISCHARGE (KAF)3014504160
2BFEI1KOOTENAI-AT BONNERS FERRY05-10-2021STAGE (FT)MMM
3FCFM8NF FLATHEAD-NEAR COLUMBIA FALLS05-10-2021DISCHARGE (KAF)944142666
4WGCM8MF FLATHEAD-NEAR WEST GLACIER05-10-2021DISCHARGE (KAF)1155137984
5HHWM8SF FLATHEAD-HUNGRY HORSE DAM05-10-2021INFLOW (KAF)1364159985
6CFMM8FLATHEAD-AT COLUMBIA FALLS05-10-2021DISCHARGE (KAF)3076358786
7DLGM8CLARK FORK-AT DEER LODGE05-10-2021DISCHARGE (KAF)466471
8DRMM8CLARK FORK-NR DRUMMOND05-10-2021DISCHARGE (KAF)187MM
9RCCM8ROCK CREEK-NEAR CLINTON05-10-2021DISCHARGE (KAF)23023797
10BONM8BLACKFOOT-NEAR BONNER05-10-2021DISCHARGE (KAF)59269585
11ABOM8CLARK FORK-ABOVE MISSOULA05-10-2021DISCHARGE (KAF)1051122985
12BITM8BITTERROOT-NEAR MISSOULA05-10-2021DISCHARGE (KAF)844106379
13BELM8CLARK FORK-BELOW MISSOULA05-10-2021DISCHARGE (KAF)1895232681
14STRM8ST. REGIS-NEAR ST. REGIS05-10-2021DISCHARGE (KAF)12517372
15SRGM8CLARK FORK-AT ST REGIS05-10-2021DISCHARGE (KAF)2367306177
16KERM8FLATHEAD-SELI’Š KSANKA QLISPE’ DAM05-10-2021INFLOW (KAF)3455446377
17NOXM8CLARK FORK-NOXON RAPIDS DAM05-10-2021INFLOW (KAF)5784761676
18CABI1CLARK FORK-CABINET GORGE DAM05-10-2021INFLOW (KAF)6359810079
19PRTI1PRIEST-NEAR PRIEST RIVER05-10-2021DISCHARGE (KAF)30658952
20ALFW1PEND OREILLE-ALBENI FALLS DAM05-10-2021INFLOW (KAF)6895920775
21HOPI1PEND OREILLE-PEND OREILLE LAKE NR HOPE05-10-2021LAKE ELEVATION (FT)MMM
22COEI1COEUR D ALENE-COEUR D ALENE LAKE05-10-2021INFLOW (KAF)962144866
23SPOW1SPOKANE-AT SPOKANE05-10-2021DISCHARGE (KAF)962MM
24LLKW1SPOKANE-AT LONGLAKE05-10-2021INFLOW (KAF)1134193059
25SATI1ST MARIES-NEAR SANTA05-10-2021DISCHARGE (KAF)356752
26SJMI1ST JOE-AT ST MARIES05-10-2021STAGE (FT)MMM
27CIBW1COLUMBIA-AT INTL BOUNDARY05-10-2021DISCHARGE (KAF)25137MM
28LAUW1KETTLE-AT LAURIER05-10-2021DISCHARGE (KAF)862134864
29GCDW1COLUMBIA-GRAND COULEE DAM05-10-2021INFLOW (KAF)271754083567
30CHJW1COLUMBIA-CHIEF JOSEPH DAM05-10-2021INFLOW (KAF)253463056783
31TONW1OKANOGAN-NEAR TONASKET05-10-2021DISCHARGE (KAF)1286129999
32PATW1METHOW-NEAR PATEROS05-10-2021DISCHARGE (KAF)748737102
33WELW1COLUMBIA-WELLS DAM05-10-2021INFLOW (KAF)274063298483
34CHDW1CHELAN-LAKE CHELAN DAM05-10-2021INFLOW (KAF)1010906112
35RRHW1COLUMBIA-ROCKY REACH DAM05-10-2021INFLOW (KAF)283483362584
36ARDW1ENTIAT-NEAR ARDENVOIR05-10-2021DISCHARGE (KAF)196179110
37PESW1WENATCHEE-AT PESHASTIN05-10-2021DISCHARGE (KAF)1176120797
38WANW1COLUMBIA-WANAPUM DAM05-10-2021INFLOW (KAF)295444044873
39PRWW1COLUMBIA-PRIEST RAPIDS DAM05-10-2021INFLOW (KAF)295524134571
40KEDW1YAKIMA-KEECHELUS LAKE05-10-2021INFLOW (KAF)8879112
41KADW1KACHESS-KACHESS DAM05-10-2021INFLOW (KAF)7571105
42EASW1YAKIMA-AT EASTON05-10-2021DISCHARGE (KAF)10089112
43CLUW1CLE ELUM-CLE ELUM LAKE05-10-2021INFLOW (KAF)338303112
44TNAW1TEANAWAY-BELOW FORKS05-10-2021DISCHARGE (KAF)7059118
45UMTW1YAKIMA-AT UMTANUM05-10-2021DISCHARGE (KAF)79881598
46BUDW1BUMPING-BUMPING LAKE DAM05-10-2021INFLOW (KAF)879493
47CLFW1NACHES-NEAR CLIFFDEL05-10-2021DISCHARGE (KAF)283279101
48RILW1TIETON-RIMROCK LAKE NEAR RIMROCK05-10-2021INFLOW (KAF)173166104
49NACW1NACHES-NEAR NACHES05-10-2021DISCHARGE (KAF)39840299
50PARW1YAKIMA-NEAR PARKER05-10-2021DISCHARGE (KAF)26231284
51KIOW1YAKIMA-AT KIONA05-10-2021DISCHARGE (KAF)55365185
52IPDI1HENRYS FORK-ISLAND PARK DAM05-10-2021INFLOW (KAF)12420162
53CHEI1FALL RIVER-NEAR CHESTER05-10-2021DISCHARGE (KAF)15426558
54ANTI1HENRYS FORK-AT ST. ANTHONY05-10-2021DISCHARGE (KAF)33254161
55TEAI1TETON-NEAR ST. ANTHONY05-10-2021DISCHARGE (KAF)22933568
56REXI1HENRYS FORK-AT REXBURG05-10-2021DISCHARGE (KAF)28762846
57JLKW4SNAKE-JACKSON LAKE AT DAM05-10-2021INFLOW (KAF)42573058
58JKSW4SNAKE-NEAR JACKSON05-10-2021DISCHARGE (KAF)1065168563
59ALPW4SNAKE-NEAR ALPINE05-10-2021DISCHARGE (KAF)1265211660
60PLDI1SF SNAKE-PALISADES DAM05-10-2021INFLOW (KAF)1715293658
61HEII1SNAKE-NEAR HEISE05-10-2021DISCHARGE (KAF)2785307491
62RIDI1WILLOW CREEK-RIRIE DAM05-10-2021INFLOW (KAF)82236
63SIFI1SNAKE-AB EAGLE ROCK NR IDAHO FALLS05-10-2021DISCHARGE (KAF)1612233069
64SHYI1SNAKE-NEAR SHELLEY05-10-2021DISCHARGE (KAF)1442204970
65SNAI1SNAKE-AT BLACKFOOT05-10-2021DISCHARGE (KAF)839151156
66BFTI1SNAKE-NEAR BLACKFOOT05-10-2021DISCHARGE (KAF)795138857
67PIHI1PORTNEUF-AT POCATELLO05-10-2021DISCHARGE (KAF)144532
68AFRI1SNAKE-AMERICAN FALLS RESERVOIR05-10-2021INFLOW (KAF)1306200465
69MILI1SNAKE-AT MILNER05-10-2021DISCHARGE (KAF)14316786
70HOTI1BRUNEAU-NEAR HOT SPRINGS05-10-2021DISCHARGE (KAF)2012516
71SWAI1SNAKE-BELOW SWAN FALLS05-10-2021DISCHARGE (KAF)1504206573
72HWRI1BIG LOST-AT HOWELL RANCH NEAR CHILLY05-10-2021DISCHARGE (KAF)1815511
73MACI1BIG LOST-MACKAY RESERVOIR NEAR MACKAY05-10-2021INFLOW (KAF)1715511
74HALI1BIG WOOD-AT HAILEY05-10-2021DISCHARGE (KAF)6720633
75MAGI1BIG WOOD-MAGIC DAM05-10-2021INFLOW (KAF)2515816
76LWRI1LITTLE WOOD-LITTLE WOOD DAM05-10-2021INFLOW (KAF)65510
77OWYO3OWYHEE-OWYHEE DAM05-10-2021INFLOW (KAF)4213132
78ARAI1SF BOISE-ANDERSON RANCH DAM05-10-2021INFLOW (KAF)12837834
79LUCI1BOISE-LUCKY PEAK DAM05-10-2021INFLOW (KAF)797MM
80BIGI1BOISE-AT GLENWOOD BRIDGE05-10-2021DISCHARGE (KAF)26538070
81PARI1BOISE-NEAR PARMA05-10-2021DISCHARGE (KAF)23033070
82WRMO3MALHEUR-WARM SPRINGS DAM05-10-2021INFLOW (KAF)51049
83BERO3MALHEUR-AGENCY VALLEY DAM05-10-2021INFLOW (KAF)121961
84BULO3BULLY CREEK-BULLY CREEK DAM05-10-2021INFLOW (KAF)M0M
85CSDI1NF PAYETTE-CASCADE DAM05-10-2021INFLOW (KAF)19736554
86DEDI1DEADWOOD-NEAR LOWMAN05-10-2021INFLOW (KAF)5411348
87EMMI1PAYETTE-NEAR EMMETT05-10-2021DISCHARGE (KAF)45696847
88WSRI1WEISER-NEAR WEISER05-10-2021DISCHARGE (KAF)12321457
89WEII1SNAKE-AT WEISER05-10-2021DISCHARGE (KAF)2460382764
90BRNI1SNAKE-BROWNLEE DAM05-10-2021INFLOW (KAF)2656406865
91WHBI1SALMON-AT WHITEBIRD05-10-2021DISCHARGE (KAF)2520506450
92TRYO3GRANDE RONDE-TROY05-10-2021DISCHARGE (KAF)60981275
93ANAW1SNAKE-NEAR ANATONE05-10-2021DISCHARGE (KAF)57421055454
94ORFI1CLEARWATER-AT OROFINO05-10-2021DISCHARGE (KAF)2406341171
95DWRI1NF CLEARWATER-DWORSHAK DAM05-10-2021INFLOW (KAF)1344184273
96SPDI1CLEARWATER-AT SPALDING05-10-2021DISCHARGE (KAF)3955504678
97LGDW1SNAKE-LOWER GRANITE DAM05-10-2021INFLOW (KAF)96961560662
98LGSW1SNAKE-LITTLE GOOSE DAM05-10-2021INFLOW (KAF)96961564562
99LMNW1SNAKE-LOWER MONUMENTAL DAM05-10-2021INFLOW (KAF)97481567562
100IHDW1SNAKE-ICE HARBOR DAM05-10-2021INFLOW (KAF)97551559263
101TCHW1WALLA WALLA-NEAR TOUCHET05-10-2021DISCHARGE (KAF)284267
102MCDW1COLUMBIA-MCNARY DAM05-10-2021INFLOW (KAF)400395839669
103GIBO3UMATILLA-NEAR GIBBON05-10-2021DISCHARGE (KAF)3733111
104PDTO3UMATILLA-AT PENDLETON05-10-2021DISCHARGE (KAF)6152117
105MYKO3MCKAY CREEK-NEAR PILOT ROCK05-10-2021DISCHARGE (KAF)4594
106UMAO3UMATILLA-NEAR UMATILLA05-10-2021DISCHARGE (KAF)2817166
107MONO3NF JOHN DAY-AT MONUMENT05-10-2021DISCHARGE (KAF)13428847
108SERO3JOHN DAY-AT SERVICE CK05-10-2021DISCHARGE (KAF)19540149
109JDAO3COLUMBIA-JOHN DAY DAM05-10-2021INFLOW (KAF)410625966969
110MODO3DESCHUTES-AT MOODY NR BIGGS05-10-2021DISCHARGE (KAF)1080119590
111TDAO3COLUMBIA-THE DALLES DAM05-10-2021INFLOW (KAF)412595337077
112PITW1KLICKITAT-NEAR PITT05-10-2021DISCHARGE (KAF)29835684
113HODO3HOOD-NEAR TUCKER BRIDGE05-10-2021DISCHARGE (KAF)12314983
114UNDW1WHITE SALMON-NEAR UNDERWOOD05-10-2021DISCHARGE (KAF)19324778
115BONO3COLUMBIA-BONNEVILLE DAM05-10-2021INFLOW (KAF)419075458377